Ashland, WI

7:48 AM CST on February 08, 2016 (GMT -0600)
Kennedy Memorial

Weather History for KASX - March, 2014

Change the Weather History Date:

Saturday, March 22, 2014

  Actual Average Record
Temperature  
Mean Temperature 16 °F -  
Max Temperature 27 °F 41 °F 65 °F (1987)
Min Temperature 3 °F 18 °F -7 °F (1989)
Degree Days  
Heating Degree Days 48    
Moisture  
Dew Point 6 °F    
Average Humidity 69    
Maximum Humidity 81    
Minimum Humidity 57    
Precipitation  
Precipitation 0.00 in - - ()
Sea Level Pressure  
Sea Level Pressure 30.32 in    
Wind  
Wind Speed 12 mph (WNW)    
Max Wind Speed 17 mph    
Max Gust Speed 28 mph    
Visibility 10 miles    
Events Snow    
Averages and records for this station are not official NWS values.
T = Trace of Precipitation, MM = Missing Value Source: NWS Daily Summary

Daily Weather History Graph

Daily Weather History Graph

Search for Another Location

Airport or City:

Trip Planner

Search our weather history database for the weather conditions in past years. The results will help you decide how hot, cold, wet, or windy it might be!

Date:

Astronomy

Mar. 22, 2014 Rise Set
Actual Time 7:02 AM CDT 7:19 PM CDT
Civil Twilight 6:32 AM CDT 7:49 PM CDT
Nautical Twilight 5:57 AM CDT 8:24 PM CDT
Astronomical Twilight 5:20 AM CDT 9:01 PM CDT
Moon 12:55 AM CDT (3/22) 10:28 AM CDT (3/22)
Length of Visible Light 13h 16m
Length of Day
12h 16m
Waning Gibbous, 65% of the Moon is Illuminated
Mar 22
Waning Gibbous
Mar 23
Last Quarter
Mar 30
New
Apr 7
First Quarter
Apr 15
Full

Hourly Weather History & Observations

Time (CDT) Temp. Windchill Dew Point Humidity Pressure Visibility Wind Dir Wind Speed Gust Speed Precip Events Conditions
12:53 AM 27.0 °F 16.1 °F 21.0 °F 78% 30.08 in 10.0 mi NNW 12.7 mph 23.0 mph N/A   Overcast
1:53 AM 24.1 °F 10.6 °F 16.0 °F 71% 30.12 in 10.0 mi NNW 17.3 mph 27.6 mph N/A   Overcast
2:42 AM 19.9 °F 6.2 °F 10.9 °F 68% 30.11 in 10.0 mi NW 15.0 mph - N/A   Mostly Cloudy
2:53 AM 19.9 °F 6.2 °F 10.9 °F 68% 30.16 in 10.0 mi NNW 15.0 mph - N/A   Scattered Clouds
3:53 AM 19.0 °F 9.0 °F 10.0 °F 68% 30.19 in 10.0 mi NNW 8.1 mph - N/A   Overcast
4:48 AM 17.6 °F 5.0 °F 12.2 °F 79% 30.16 in 4.0 mi WNW 11.5 mph - 0.00 in Snow Light Snow
4:53 AM 17.1 °F 3.0 °F 12.0 °F 81% 30.21 in 4.0 mi WNW 13.8 mph - 0.00 in Snow Light Snow
5:13 AM 16.0 °F 2.9 °F 10.0 °F 77% 30.18 in 9.0 mi WNW 11.5 mph - 0.00 in   Overcast
5:53 AM 12.9 °F -1.6 °F 7.0 °F 77% 30.25 in 10.0 mi WNW 12.7 mph - 0.00 in   Partly Cloudy
6:53 AM 10.0 °F -4.5 °F 3.9 °F 76% 30.28 in 10.0 mi WNW 11.5 mph - N/A   Clear
7:53 AM 9.0 °F -5.9 °F 3.0 °F 77% 30.30 in 10.0 mi WNW 11.5 mph - N/A   Clear
8:53 AM 10.9 °F -4.1 °F 3.9 °F 73% 30.33 in 10.0 mi WNW 12.7 mph - N/A   Clear
9:28 AM 10.9 °F -5.9 °F 3.0 °F 70% 30.30 in 9.0 mi WNW 16.1 mph - N/A   Mostly Cloudy
9:41 AM 10.9 °F -4.7 °F 3.9 °F 73% 30.31 in 10.0 mi WNW 13.8 mph - N/A   Scattered Clouds
9:53 AM 10.9 °F -5.4 °F 3.0 °F 70% 30.36 in 10.0 mi WNW 15.0 mph 21.9 mph N/A   Mostly Cloudy
10:03 AM 10.9 °F -3.4 °F 3.9 °F 73% 30.31 in 10.0 mi WNW 11.5 mph 21.9 mph N/A   Scattered Clouds
10:53 AM 12.0 °F -3.4 °F 3.0 °F 67% 30.38 in 10.0 mi NW 13.8 mph - N/A   Partly Cloudy
11:38 AM 15.1 °F 2.5 °F 3.0 °F 59% 30.32 in 10.0 mi WNW 10.4 mph - N/A   Mostly Cloudy
11:53 AM 14.0 °F 0.5 °F 3.0 °F 62% 30.38 in 10.0 mi WNW 11.5 mph - N/A   Mostly Cloudy
12:53 PM 14.0 °F 0.5 °F 1.9 °F 59% 30.39 in 10.0 mi NNW 11.5 mph - N/A   Overcast
1:53 PM 16.0 °F 4.4 °F 5.0 °F 62% 30.39 in 10.0 mi WNW 9.2 mph - N/A   Overcast
2:53 PM 17.1 °F 5.0 °F 5.0 °F 59% 30.39 in 10.0 mi WNW 10.4 mph 20.7 mph N/A   Overcast
3:02 PM 16.0 °F 3.6 °F 5.0 °F 62% 30.34 in 10.0 mi WNW 10.4 mph - N/A   Overcast
3:13 PM 16.0 °F 1.7 °F 3.9 °F 59% 30.34 in 10.0 mi WNW 13.8 mph - N/A   Overcast
3:53 PM 16.0 °F 2.3 °F 3.9 °F 59% 30.40 in 10.0 mi NW 12.7 mph - N/A   Overcast
4:53 PM 16.0 °F 1.1 °F 3.0 °F 57% 30.41 in 10.0 mi WNW 15.0 mph - N/A   Overcast
5:53 PM 15.1 °F 1.8 °F 3.9 °F 61% 30.42 in 10.0 mi NW 11.5 mph - N/A   Overcast
6:49 PM 14.0 °F 3.9 °F 6.8 °F 73% 30.37 in 10.0 mi WNW 6.9 mph - N/A   Overcast
6:53 PM 14.0 °F 2.9 °F 5.0 °F 67% 30.44 in 10.0 mi WNW 8.1 mph - N/A   Mostly Cloudy
7:53 PM 10.0 °F -0.9 °F 1.9 °F 70% 30.45 in 10.0 mi West 6.9 mph - N/A   Scattered Clouds
8:53 PM 10.9 °F -1.8 °F 3.0 °F 70% 30.47 in 10.0 mi West 9.2 mph - N/A   Clear
9:53 PM 6.1 °F -2.8 °F 1.0 °F 80% 30.48 in 10.0 mi West 4.6 mph - N/A   Clear
10:53 PM 6.1 °F -4.3 °F -0.0 °F 76% 30.49 in 10.0 mi WSW 5.8 mph - N/A   Clear
11:53 PM 3.9 °F -8.2 °F -0.9 °F 80% 30.49 in 10.0 mi WSW 6.9 mph - N/A   Clear